SCOUT X-1 DEB, 4026

Orbit data source: Space-Track

SCOUT X-1 DEB, 4026 is space debris in LEO originally from a launch on Thu, 16 Feb 1961 UTC launched from the Wallops Island (WLPIS). Debris objects in space refer to the collection of defunct objects orbiting the Earth. Examples of debris include non-operational satellites, rocket bodies, and fragments generated from explosions, collisions, or faulty payload assembly.

Loading next visibility...
Identifier
4026, 1961-004G
Orbit
LEO
Country
Flag of USUS
Related business
Manufacturer
Unknown
Mission
Spacecraft
Bus & Motor
Unknown
Mass
Unknown
Launch date (UTC)
1961-02-16 (65 years ago)
Launch vehicle
Unknown
Launch site
Wallops Island (WLPIS)
Object type
Payload
Rocket body
Debris
Shape & HBR
Unknown shape, 0.1 m
Radar Cross Section
Medium (>0.1 m² and <1 m²)

Expand to show TLE details & history
Last TLE update: 11 hours ago

TLE from 11 hours ago
0 SCOUT X-1 DEB
1 04026U 61004G   26206.60228635  .00006271  00000-0  11491-2 0  9995
2 04026  38.8205 291.7524 0373263  54.5928 308.9094 14.29500985139309
Epoch: 2026-07-25T14:27Z
TLE epoch observation values (Epoch: 2026-07-25T14:27:17.540Z)
Latitude
0.00002°
Longitude
131.61713°
Altitude
630.899 km
Speed
7.629 km/s
True Right ascension
19h 27m 00s
True Declination
0° 00' 00"
Sunlit
Object was in full shadow at epoch
Visualization orbit readout
Latitude
Unknown
Longitude
Unknown
Altitude
Unknown
Speed
Unknown
Apparent Right ascension
Unknown
Apparent Declination
Unknown
Sunlit
N/A
Visualization observer readout
Local Sidereal Time
14:21:28
Azimuth
Unknown
Elevation
Unknown
Doppler factor
Unknown
Orbital elements
Apogee altitude
1,063.712 km
Perigee altitude
528.149 km
Semi-major axis
7,174.068 km
Eccentricity
0.03733
Inclination
38.8205°
RAAN
291.7524°
Arg. of periapsis
54.5928°
True anomaly
305.48277°
Mean anomaly
308.9094°
Eccentric anomaly
307.20605°
Mean motion
3.57186 °/min
Orbital period
100.79 mins
BSTAR
0.0011491
Loading maneuver chart data...
Computing Atmospheric mass density...
Loading historical data...
Loading historical data...
Loading historical data...
Loading historical data...
Loading historical data...
Loading historical data...
Loading historical data...

Documentation

Showing up to 5 results
|